Fort Meade, MD

1:01 PM EST on December 14, 2017 (GMT -0500)
Tipton

Weather History for KFME - October, 2012

Change the Weather History Date:

Monday, October 22, 2012

  Actual Average (KBWI) Record (KBWI)
Temperature  
Mean Temperature 51 °F -  
Max Temperature 69 °F 66 °F 85 °F (1979)
Min Temperature 33 °F 43 °F 31 °F (1952)
Degree Days  
Heating Degree Days 14    
Growing Degree Days 1 (Base 50)    
Moisture  
Dew Point 40 °F    
Average Humidity 70    
Maximum Humidity 100    
Minimum Humidity 28    
Precipitation  
Precipitation 0.00 in - - ()
Sea Level Pressure  
Sea Level Pressure 30.17 in    
Wind  
Wind Speed 2 mph (West)    
Max Wind Speed 12 mph    
Max Gust Speed -    
Visibility 9 miles    
Events      
Averages and records for this station are not official NWS values.
T = Trace of Precipitation, MM = Missing Value Source: NWS Daily Summary

Daily Weather History Graph

Daily Weather History Graph

Search for Another Location

Airport or City:

Trip Planner

Search our weather history database for the weather conditions in past years. The results will help you decide how hot, cold, wet, or windy it might be!

Date:

Astronomy

Oct. 22, 2012 Rise Set
Actual Time 7:24 AM EDT 6:17 PM EDT
Civil Twilight 6:57 AM EDT 6:45 PM EDT
Nautical Twilight 6:25 AM EDT 7:16 PM EDT
Astronomical Twilight 5:54 AM EDT 7:47 PM EDT
Moon 2:21 PM EDT (10/22) 12:12 AM EDT (10/22)
Length of Visible Light 11h 48m
Length of Day
10h 53m
First Quarter, 56% of the Moon is Illuminated
Oct 22
First Quarter
Oct 29
Full
Nov 6
Last Quarter
Nov 13
New
Nov 20
First Quarter

Hourly Weather History & Observations

Time (EDT) Temp. Dew Point Humidity Pressure Visibility Wind Dir Wind Speed Gust Speed Precip Events Conditions
12:03 AM 41.0 °F 37.4 °F 87% 30.16 in 10.0 mi Calm Calm - N/A   Clear
12:24 AM 39.2 °F 37.4 °F 93% 30.16 in 10.0 mi Calm Calm - N/A   Clear
12:45 AM 39.2 °F 37.4 °F 93% 30.16 in 10.0 mi Calm Calm - N/A   Clear
1:06 AM 39.2 °F 37.4 °F 93% 30.15 in 10.0 mi Calm Calm - N/A   Clear
1:51 AM 37.4 °F 37.4 °F 100% 30.16 in 7.0 mi Calm Calm - N/A   Clear
2:54 AM 37.4 °F 35.6 °F 93% 30.16 in 7.0 mi Calm Calm - N/A   Clear
3:57 AM 35.6 °F 35.6 °F 100% 30.16 in 7.0 mi Calm Calm - N/A   Clear
4:18 AM 35.6 °F 33.8 °F 93% 30.17 in 7.0 mi Calm Calm - N/A   Clear
4:42 AM 35.6 °F 35.6 °F 100% 30.17 in 7.0 mi Calm Calm - N/A   Clear
5:03 AM 35.6 °F 33.8 °F 93% 30.17 in 7.0 mi Calm Calm - N/A   Clear
5:45 AM 35.6 °F 33.8 °F 93% 30.18 in 7.0 mi Calm Calm - N/A   Clear
6:06 AM 35.6 °F 33.8 °F 93% 30.19 in 7.0 mi Calm Calm - N/A   Clear
6:27 AM 35.6 °F 33.8 °F 93% 30.19 in 7.0 mi Calm Calm - N/A   Clear
7:09 AM 33.8 °F 33.8 °F 100% 30.20 in 5.0 mi Calm Calm - N/A   Clear
7:30 AM 35.6 °F 33.8 °F 93% 30.21 in 4.0 mi Calm Calm - N/A   Clear
7:51 AM 33.8 °F 33.8 °F 100% 30.21 in 5.0 mi Calm Calm - N/A   Clear
8:12 AM 35.6 °F 35.6 °F 100% 30.22 in 5.0 mi Calm Calm - N/A   Clear
8:36 AM 39.2 °F 37.4 °F 93% 30.23 in 7.0 mi Calm Calm - N/A   Clear
8:57 AM 42.8 °F 41.0 °F 93% 30.23 in 7.0 mi Calm Calm - N/A   Clear
9:12 AM 44.6 °F 44.6 °F 100% 30.22 in 10.0 mi Calm Calm - N/A   Clear
9:42 AM 53.6 °F 44.6 °F 72% 30.22 in 10.0 mi Calm Calm - N/A   Unknown
10:03 AM 55.4 °F 44.6 °F 67% 30.23 in 10.0 mi WNW 4.6 mph - N/A   Clear
10:24 AM 59.0 °F 42.8 °F 55% 30.23 in 10.0 mi West 8.1 mph - N/A   Clear
10:45 AM 60.8 °F 41.0 °F 48% 30.22 in 10.0 mi West 8.1 mph - N/A   Clear
11:06 AM 62.6 °F 41.0 °F 45% 30.21 in 10.0 mi WNW 8.1 mph - N/A   Clear
11:27 AM 62.6 °F 41.0 °F 45% 30.21 in 10.0 mi West 9.2 mph - N/A   Clear
11:51 AM 64.4 °F 41.0 °F 42% 30.21 in 10.0 mi WNW 8.1 mph - N/A   Clear
12:12 PM 64.4 °F 39.2 °F 40% 30.20 in 10.0 mi WSW 9.2 mph - N/A   Clear
12:33 PM 66.2 °F 39.2 °F 37% 30.20 in 10.0 mi West 5.8 mph - N/A   Clear
12:54 PM 66.2 °F 41.0 °F 40% 30.19 in 10.0 mi WNW 3.5 mph - N/A   Clear
1:15 PM 68.0 °F 39.2 °F 35% 30.17 in 10.0 mi WNW 8.1 mph - N/A   Clear
1:36 PM 68.0 °F 41.0 °F 37% 30.17 in 10.0 mi West 3.5 mph - N/A   Clear
1:57 PM 68.0 °F 39.2 °F 35% 30.16 in 10.0 mi WNW 4.6 mph - N/A   Clear
2:18 PM 68.0 °F 37.4 °F 33% 30.15 in 10.0 mi WNW 8.1 mph - N/A   Clear
2:39 PM 69.8 °F 37.4 °F 31% 30.15 in 10.0 mi West 9.2 mph - N/A   Clear
3:00 PM 69.8 °F 35.6 °F 28% 30.14 in 10.0 mi WNW 6.9 mph - N/A   Clear
3:21 PM 69.8 °F 35.6 °F 28% 30.14 in 10.0 mi West 4.6 mph - N/A   Clear
3:42 PM 69.8 °F 35.6 °F 28% 30.13 in 10.0 mi WNW 8.1 mph - N/A   Clear
4:06 PM 69.8 °F 35.6 °F 28% 30.13 in 10.0 mi West 11.5 mph - N/A   Clear
4:27 PM 68.0 °F 37.4 °F 33% 30.13 in 10.0 mi WSW 6.9 mph - N/A   Clear
4:48 PM 68.0 °F 37.4 °F 33% 30.13 in 10.0 mi West 10.4 mph - N/A   Clear
5:09 PM 66.2 °F 39.2 °F 37% 30.13 in 10.0 mi West 9.2 mph - N/A   Clear
5:30 PM 64.4 °F 41.0 °F 42% 30.13 in 10.0 mi WNW 5.8 mph - N/A   Clear
5:51 PM 62.6 °F 42.8 °F 48% 30.13 in 10.0 mi WNW 3.5 mph - N/A   Clear
6:12 PM 59.0 °F 44.6 °F 59% 30.13 in 10.0 mi Calm Calm - N/A   Clear
6:33 PM 55.4 °F 46.4 °F 72% 30.13 in 10.0 mi Calm Calm - N/A   Clear
6:54 PM 53.6 °F 44.6 °F 72% 30.13 in 10.0 mi Calm Calm - N/A   Clear
7:15 PM 51.8 °F 44.6 °F 76% 30.14 in 10.0 mi Calm Calm - N/A   Clear
7:36 PM 51.8 °F 46.4 °F 82% 30.15 in 10.0 mi Calm Calm - N/A   Clear
8:21 PM 50.0 °F 44.6 °F 82% 30.15 in 10.0 mi Calm Calm - N/A   Clear
8:42 PM 48.2 °F 44.6 °F 87% 30.15 in 10.0 mi Calm Calm - N/A   Clear
9:03 PM 46.4 °F 44.6 °F 93% 30.15 in 10.0 mi Calm Calm - N/A   Clear
9:24 PM 46.4 °F 44.6 °F 93% 30.16 in 10.0 mi Calm Calm - N/A   Clear
9:45 PM 46.4 °F 44.6 °F 93% 30.16 in 10.0 mi Calm Calm - N/A   Clear
10:06 PM 46.4 °F 44.6 °F 93% 30.15 in 10.0 mi Calm Calm - N/A   Clear
10:48 PM 44.6 °F 42.8 °F 93% 30.15 in 10.0 mi Calm Calm - N/A   Clear
11:09 PM 44.6 °F 42.8 °F 93% 30.15 in 10.0 mi Calm Calm - N/A   Clear
11:30 PM 44.6 °F 42.8 °F 93% 30.15 in 10.0 mi Calm Calm - N/A   Clear
11:51 PM 44.6 °F 42.8 °F 93% 30.14 in 10.0 mi Calm Calm - N/A   Clear